Погода в Болохово

Россия / Тульская область     54°04′55″N   37°49′36″E
темп.,
°C
ветер,
м/с
пор.,
м/с
влажн.,
%
обл.,
%
осадки,
мм/ч
давл.,
гПа
погр.,
м
12 апреля, пн
пн1200:00+7всв3669100 0.0 103197
03:00+5всв41171100 0.0 1032219
06:00+4всв51462100 0.0 1031329
09:00+7в71458100 0.0 1030505
12:00+11в71071100 0.0 1029568
15:00+15вюв71066100 0.0 1027735
18:00+15вюв6116978 0.0 1026578
21:00+11в6158357 0.0 1026328
13 апреля, вт
вт1300:00+11юв5158010 0.0 1025285
03:00+9юв41378100 0.0 1026209
06:00+8юв4107981 0.0 1026164
09:00+13ююв5106088 0.0 1025324
12:00+18ююв694232 0.0 1025908
15:00+20ююв693462 0.0 10241557
18:00+18юв5103996 0.0 1023335
21:00+13юв515530 0.0 1023277
14 апреля, ср
ср1400:00+11юв5155930 0.0 1022314
03:00+9юв4126997 0.0 1022210
06:00+8юв41072100 0.0 1021159
09:00+12ююв5105574 0.0 1021353
12:00+17юв574064 0.0 1019789
15:00+18ююв683152 0.0 10181955
18:00+16юв364416 0.0 1017212
21:00+12юв4654100 0.0 101886
15 апреля, чт
чт1500:00+10ююз1160100 0.0 101711
03:00+9юв226383 0.0 101712
06:00+9юв2266100 0.0 101720
09:00+12ююв2359100 0.0 1017228
12:00+15юв2351100 0.0 1017550
15:00+17юв2444100 0.0 10161362
18:00+16св1152100 0.0 101511
21:00+13в4759100 0.0 1016129
16 апреля, пт
пт1600:00+12всв3771100 0.2 1015152
03:00+9всв4980100 0.6 1015191
06:00+9в3784100 0.1 1015150
09:00+12в467592 0.2 1016303
12:00+16в5559100 0.0 1017832
15:00+17в785199 0.1 10171523
18:00+16всв61158100 0.1 1017608
21:00+13всв81564100 0.1 1019604